Trenton, NJ

6:55 PM EST on February 13, 2016 (GMT -0500)
Trenton Mercer

Weather History for KTTN - August, 2012

Change the Weather History Date:

Thursday, August 9, 2012

  Actual Average Record
Temperature  
Mean Temperature 79 °F 75 °F  
Max Temperature 88 °F 85 °F 99 °F (2001)
Min Temperature 70 °F 65 °F 50 °F (1989)
Degree Days  
Heating Degree Days 0 0  
Month to date heating degree days 0 0  
Since 1 June heating degree days 22 24  
Since 1 July heating degree days 0 0  
Cooling Degree Days 14 10  
Month to date cooling degree days 121 91  
Year to date cooling degree days 904 668  
Since 1 June cooling degree days 748 611  
Growing Degree Days 28 (Base 50)    
Moisture  
Dew Point 69 °F    
Average Humidity 77    
Maximum Humidity 100    
Minimum Humidity 53    
Precipitation  
Precipitation 1.02 in 0.14 in 2.97 in (1962)
Month to date precipitation 1.89 1.30  
Year to date precipitation 22.93 28.18  
Sea Level Pressure  
Sea Level Pressure 29.91 in    
Wind  
Wind Speed 4 mph (South)    
Max Wind Speed 37 mph    
Max Gust Speed 56 mph    
Visibility 6 miles    
Events Fog , Rain    
T = Trace of Precipitation, MM = Missing Value Source: NWS Daily Summary

Daily Weather History Graph

Daily Weather History Graph

Search for Another Location

Airport or City:

Trip Planner

Search our weather history database for the weather conditions in past years. The results will help you decide how hot, cold, wet, or windy it might be!

Date:

Astronomy

Aug. 09, 2012 Rise Set
Actual Time 6:04 AM EDT 8:03 PM EDT
Civil Twilight 5:35 AM EDT 8:33 PM EDT
Nautical Twilight 4:59 AM EDT 9:09 PM EDT
Astronomical Twilight 4:19 AM EDT 9:48 PM EDT
Moon 11:53 PM EDT (8/9) 1:45 PM EDT (8/9)
Length of Visible Light 14h 57m
Length of Day
13h 58m
Waning Gibbous, 51% of the Moon is Illuminated
Aug 9
Waning Gibbous
Aug 9
Last Quarter
Aug 17
New
Aug 24
First Quarter
Aug 31
Full

Hourly Weather History & Observations

Time (EDT) Temp. Heat Index Dew Point Humidity Pressure Visibility Wind Dir Wind Speed Gust Speed Precip Events Conditions
12:53 AM 73.9 °F - 71.1 °F 91% 29.93 in 9.0 mi South 4.6 mph - N/A   Clear
1:53 AM 73.0 °F - 71.1 °F 93% 29.93 in 9.0 mi Calm Calm - N/A   Clear
2:53 AM 73.0 °F - 71.1 °F 93% 29.92 in 7.0 mi Calm Calm - N/A   Clear
3:53 AM 72.0 °F - 70.0 °F 93% 29.91 in 8.0 mi Calm Calm - N/A   Clear
4:53 AM 71.1 °F - 69.1 °F 93% 29.91 in 6.0 mi Calm Calm - N/A   Clear
5:22 AM 69.8 °F - 69.8 °F 100% 29.94 in 1.8 mi Calm Calm - N/A   Clear
5:41 AM 69.8 °F - 69.8 °F 100% 29.95 in 2.5 mi Calm Calm - N/A   Clear
5:48 AM 69.8 °F - 68.0 °F 94% 29.95 in 4.0 mi Calm Calm - N/A   Clear
5:53 AM 70.0 °F - 69.1 °F 97% 29.93 in 5.0 mi Calm Calm - N/A   Clear
6:11 AM 69.8 °F - 69.8 °F 100% 29.95 in 0.5 mi Calm Calm - N/A Fog Fog
6:20 AM 69.8 °F - 69.8 °F 100% 29.95 in 0.5 mi Calm Calm - N/A Fog Fog
6:23 AM 69.8 °F - 68.0 °F 94% 29.95 in 2.5 mi Calm Calm - N/A   Partly Cloudy
6:30 AM 71.6 °F - 68.0 °F 88% 29.95 in 7.0 mi Calm Calm - N/A   Partly Cloudy
6:53 AM 71.1 °F - 68.0 °F 90% 29.94 in 8.0 mi Calm Calm - N/A   Partly Cloudy
7:36 AM 73.4 °F - 69.8 °F 88% 29.97 in 8.0 mi Calm Calm - N/A   Mostly Cloudy
7:53 AM 73.0 °F - 71.1 °F 93% 29.95 in 6.0 mi Calm Calm - N/A   Overcast
8:35 AM 77.0 °F - 73.4 °F 89% 29.97 in 7.0 mi Calm Calm - N/A   Scattered Clouds
8:53 AM 77.0 °F - 73.0 °F 88% 29.95 in 8.0 mi SSW 3.5 mph - N/A   Clear
9:53 AM 80.1 °F 83.8 °F 72.0 °F 76% 29.94 in 7.0 mi SSW 5.8 mph - N/A   Clear
10:53 AM 82.0 °F 86.3 °F 71.1 °F 69% 29.92 in 9.0 mi South 8.1 mph - N/A   Clear
11:53 AM 84.9 °F 90.1 °F 71.1 °F 63% 29.93 in 10.0 mi South 6.9 mph - N/A   Partly Cloudy
12:53 PM 86.0 °F 90.1 °F 69.1 °F 57% 29.91 in 10.0 mi Variable 5.8 mph - N/A   Partly Cloudy
1:53 PM 86.0 °F 90.1 °F 69.1 °F 57% 29.89 in 9.0 mi South 9.2 mph - N/A   Partly Cloudy
2:53 PM 88.0 °F 92.1 °F 69.1 °F 53% 29.87 in 10.0 mi South 10.4 mph - N/A   Clear
3:53 PM 87.1 °F 90.6 °F 68.0 °F 53% 29.85 in 10.0 mi SSW 12.7 mph - N/A   Clear
4:53 PM 75.9 °F - 66.0 °F 71% 29.88 in 1.8 mi NNW 16.1 mph 26.5 mph N/A   Haze
5:02 PM 71.6 °F - 64.4 °F 78% 29.92 in 1.8 mi NNW 25.3 mph 38.0 mph 0.06 in Rain Light Rain
5:11 PM 69.8 °F - 64.4 °F 83% 29.92 in 0.2 mi WNW 32.2 mph 56.4 mph 0.44 in Rain Heavy Rain
5:20 PM 75.2 °F - 60.8 °F 61% 29.90 in 0.2 mi South 18.4 mph 56.4 mph 0.93 in Rain Heavy Rain
5:30 PM 73.4 °F - 64.4 °F 73% 29.89 in 1.0 mi NE 11.5 mph 17.3 mph 1.02 in Rain Light Rain
5:33 PM 73.4 °F - 64.4 °F 73% 29.89 in 4.0 mi Variable 3.5 mph 17.3 mph 1.02 in Rain Light Rain
5:43 PM 75.2 °F - 64.4 °F 69% 29.89 in 10.0 mi ESE 4.6 mph - 1.02 in   Scattered Clouds
5:53 PM 77.0 °F - 64.0 °F 64% 29.87 in 10.0 mi SE 4.6 mph - 1.02 in   Partly Cloudy
6:53 PM 75.0 °F - 69.1 °F 82% 29.85 in 9.0 mi Calm Calm - N/A   Clear
7:53 PM 73.0 °F - 69.1 °F 87% 29.85 in 8.0 mi SSE 3.5 mph - N/A   Clear
8:53 PM 73.9 °F - 69.1 °F 85% 29.87 in 8.0 mi Calm Calm - N/A   Clear
9:53 PM 73.0 °F - 69.1 °F 87% 29.88 in 8.0 mi Calm Calm - N/A   Clear
10:53 PM 75.0 °F - 70.0 °F 84% 29.89 in 7.0 mi Calm Calm - N/A   Mostly Cloudy
11:53 PM 72.0 °F - 70.0 °F 93% 29.86 in 6.0 mi SSE 4.6 mph - N/A   Clear